Terminal Aerodrome Forecast
Issued by NWS Chicago, IL

Home | Current Version | Previous Version | Text Only | Print | Product List | Glossary Off
Versions: 1 2 3 4 5 6 7 8 9 10 11 12 13 14 15 16 17 18 19 20 21 22 23 24 25 26 27 28

000
FTUS43 KLOT 260806 AAA
TAFRFD
TAF AMD
KRFD 260806Z 2608/2706 02009KT P6SM SCT050
     FM260845 03010KT P6SM SCT003 BKN006
     FM261600 05013KT P6SM BKN015
     FM261900 06013KT P6SM BKN025 OVC050=

USA.gov is the U.S. government's official web portal to all federal, state and local government web resources and services.